SCP
0 0 0 0 0 0 0 0 0 0 0 0 0 0 0 0 0 0 0 0 0 0 0 0 0 0 0 0 0 0 0 0 0 0 0 0 0 0
0 0 0 0 0 0 0 0 0 0 0 0 0 0 0 0 0 0 0 0 0 0 0 0 0 0 0 0 0 0 0 0 0 0 0 0 0 0
0 0 0 0 0 0 0 0 0 0 0 0 0 0 0 0 0 0 0 0 0 0 0 0 0 0 0 0 0 0 0 0 0 0 0 0 0 0
0 0 0 0 0 0 0 0 0 0 0 0 0 0 0 0 0 0 0 0 0 0 0 0 0 0 0 0 0 0 0 0 0 0 0 0 0 0
0 0 0 0 0 0 0 0 0 0 0 0 0 0 0 0 0 0 0 0 0 0 0 0 0 0 0 0 0 0 0 0 0 0 0 0 0 0
0 0 0 0 0 0 0 0 0 0 0 0 0 0 0 0 0 0 0 0 0 0 0 0 0 0 0 0 0 0 0 0 0 0 0 0 0 0
0 0 0 0 0 0 0 0 0 0 0 0 0 0 0 0 0 0 0 0 0 0 0 0 0 0 0 0 0 0 0 0 0 0 0 0 0 0
0 0 0 0 0 0 0 0 0 0 0 0 0 0 0 0 0 0 0 0 0 0 0 0 0 0 0 0 0 0 0 0 0 0 0 0 0 0
0 0 0 0 0 0 0 0 0 0 0 0 0 0 0 0 0 0 0 0 0 0 0 0 0 0 0 0 0 0 0 0 0 0 0 0 0 0
0 0 0 0 0 0 0 0 0 0 0 0 0 0 0 0 0 0 0 0 0 0 0 0 0 0 0 0 0 0 0 0 0 0 0 0 0 0
0 0 1 0 0 0 0 0 0 0 0 0 0 0 0 0 0 0 0 0 0 0 0 0 0 0 0 0 0 0 0 0 0 0 0 0 0 0
0 0 0 0 0 0 0 0 0 0 0 0 0 0 0 0 0 0 0 0 0 0 0 0 0 0 0 0 0 0 0 0 0 0 0 0 0 0
0 0 0 0 0 0 0 0 0 0 0 0 0 0 0 0 0 0 0 0 0 0 0 0 0 0 0 0 0 0 0 0 0 0 0 0 0 0
0 0 0 0 0 0 0 0 0 0 0 0 0 0 0 0 0 0 0 0 0 0 0 0 0 0 0 0 0 0 0 0 0 0 0 0 0 0
0 0 0 0 0 0 0 0 0 0 0 0 0 0 0 0 0 0 0 0 0 0 0 0 0 0 0 0 0 0 0 0 0 0 0 0 0 0
0 0 0 0 0 0 0 0 0 0 0 0 0 0 0 0 0 0 0 0 0 0 0 0 0 0 0 0 0 0 0 0 0 0 0 0 0 0
0 0 0 0 0 0 0 0 0 0 0 0 0 0 0 0 0 0 0 0 0 0 0 0 0 0 0 0 0 0 0 0 0 0 0 -0 0 0
0 0 0 0 0 0 0 0 0 0 0 0 0 0 0 0 0 0 0 0 0 0 0 0 0 0 0 0 0 0 0 0 0 0 0 0 0 0
0 0 0 0 0 0 0 0 0 0 0 0 0 0 0 0 0 0 0 0 0 0 0 0 0 0 0 0 0 0 0 0 0 0 0 0 0 0
0 0 0 0 0 0 0 0 0 0 0 0 0 0 0 0 0 0 0 0 0 0 0 0 0 0 0 0 0 0 0 0 -0 -0 -0 0 0 0
0 0 0 0 0 0 0 0 0 0 0 0 0 0 0 0 0 0 0 0 0 0 0 0 0 0 0 0 0 0 0 0 0 0 0 -0 -0 0
0 0 0 0 0 0 0 0 0 0 0 0 0 0 0 0 0 0 0 0 0 0 0 0 0 0 0 0 0 0 0 0 0 0 0 0 -0 0
0 0 0 0 0 0 0 0 0 0 0 0 0 0 0 0 0 0 0 0 0 0 0 0 0 0 0 0 0 0 0 -0 0 0 0 -0 -0 -0
Wind_Speed_500mb
33 33 38 33 32 30 29 25 22 22 23 18 13 16 17 27 36 28 27 30 31 29 31 36 38 35 31 32 30 28 29 30 32 34 36 36 36 38
29 33 35 43 41 34 35 31 26 25 25 18 15 18 20 17 23 29 33 36 32 31 37 44 39 39 37 34 34 31 30 29 26 27 31 36 39 40
32 31 32 35 43 48 42 36 36 36 29 31 29 28 26 28 32 38 43 41 38 37 43 48 47 42 38 37 37 35 38 41 36 32 32 33 33 34
35 33 34 36 38 39 44 42 42 41 39 37 39 39 41 39 37 38 38 43 39 45 50 50 42 41 48 49 47 45 46 44 46 47 46 42 40 40
41 38 36 38 41 38 38 42 44 45 41 38 37 37 39 37 40 44 43 45 46 49 52 53 59 51 48 50 48 51 52 51 51 54 54 52 49 48
53 44 44 43 44 45 42 43 39 38 35 33 37 39 39 37 40 42 45 47 53 57 63 61 51 50 50 52 60 59 59 57 53 52 49 50 53 54
60 56 48 48 45 44 44 43 42 41 39 38 40 43 47 45 43 43 46 51 54 51 49 44 55 52 52 54 59 63 64 62 62 63 66 63 67 69
62 63 52 50 48 47 47 42 46 45 46 44 40 44 49 48 40 37 40 46 47 50 51 52 39 41 36 31 36 38 35 37 38 42 47 53 59 60
57 64 59 53 52 48 50 55 51 49 46 43 47 51 52 44 37 39 41 45 47 47 49 50 43 45 41 39 39 42 48 50 50 51 49 51 52 49
53 58 62 51 50 46 50 56 53 52 49 50 51 54 51 39 40 44 45 47 51 47 48 59 55 55 49 46 52 59 54 43 42 45 46 53 63 65
41 44 52 55 46 44 50 50 44 46 49 48 49 52 41 38 39 43 44 47 48 45 50 54 47 51 50 54 58 48 42 40 44 45 45 50 57 62
41 43 46 49 48 52 50 47 48 47 41 42 45 39 40 43 45 47 40 41 40 39 45 46 44 45 60 59 51 51 52 49 54 57 56 60 60 63
39 42 45 51 59 45 43 43 45 47 42 41 34 35 41 43 36 28 22 27 38 48 46 42 51 54 51 59 60 53 49 59 64 69 69 64 62 67
33 33 38 37 31 32 39 42 44 38 34 29 28 30 30 22 22 28 33 36 41 43 42 44 47 44 49 55 53 62 64 71 72 74 67 68 75 81
35 33 30 31 30 28 32 33 30 24 20 19 17 15 19 20 23 31 38 43 40 40 34 29 37 43 49 51 59 69 78 84 69 60 69 79 89 92
34 34 33 34 30 31 27 21 19 19 17 18 21 20 22 27 33 38 44 37 33 31 27 26 34 43 45 49 65 72 62 56 66 74 83 91 94 99
38 35 31 32 29 21 17 16 20 22 17 16 20 24 26 30 33 34 28 27 32 35 38 34 43 41 37 57 65 61 61 60 72 79 87 103 109 98
35 30 28 24 23 19 15 16 18 21 19 21 26 29 26 29 31 27 24 28 32 34 40 45 47 36 53 56 53 68 62 69 77 81 89 91 119 93
24 22 23 22 18 20 19 18 20 23 26 31 31 30 30 31 32 26 25 31 31 36 40 42 32 48 57 58 67 64 69 70 78 89 95 90 94 104
22 20 19 22 22 23 21 19 22 28 29 27 28 30 36 29 18 21 29 29 32 35 39 27 43 45 46 50 63 76 57 64 72 90 97 87 90 92
25 23 19 23 24 19 19 19 20 23 26 28 27 18 15 16 21 27 26 26 29 31 33 33 45 44 41 45 57 72 65 55 64 77 80 86 86 94
27 30 23 21 17 15 18 22 25 27 27 20 19 18 19 23 27 30 23 26 25 26 34 34 41 39 38 40 54 67 64 62 73 69 65 67 67 71
27 25 24 19 16 19 24 24 21 17 17 19 18 19 20 28 32 25 23 22 26 28 33 36 38 40 36 40 53 61 56 60 78 86 85 64 51 45
Wind_Direction_500mb
223 227 223 226 230 230 238 240 244 247 250 261 238 233 245 267 262 268 286 296 306 315 324 323 316 316 301 302 293 291 291 286 279 278 280 279 275 273
219 223 230 230 229 230 237 242 249 257 266 270 259 267 283 258 248 271 288 293 293 297 306 311 303 296 306 296 291 288 288 284 281 283 284 281 280 276
223 223 227 228 236 237 242 246 253 256 258 265 269 276 269 268 272 280 282 284 293 296 300 302 301 293 295 295 287 286 294 280 276 282 288 289 284 285
230 228 236 234 235 236 247 251 251 257 263 270 274 271 275 282 285 281 274 276 286 289 295 303 304 295 295 297 285 276 281 282 267 271 277 274 278 283
233 234 238 248 251 247 251 251 248 254 263 268 277 284 284 283 283 288 284 284 282 284 291 297 299 294 289 287 282 279 279 276 274 270 268 265 263 269
238 242 243 246 253 256 250 249 247 248 254 261 279 289 289 294 288 287 286 289 288 286 292 296 298 293 287 282 284 282 281 278 271 266 265 266 263 263
242 241 247 247 251 255 256 259 257 258 262 266 277 291 293 294 295 291 289 290 292 298 300 298 301 300 291 284 282 281 282 282 276 269 267 267 266 268
247 241 243 248 247 251 255 258 257 264 268 276 285 292 297 297 294 291 290 294 301 306 312 310 308 315 309 301 299 288 284 283 278 274 267 268 267 266
256 247 243 250 250 251 257 257 253 258 265 274 274 288 296 294 285 283 289 292 293 302 302 304 308 308 305 293 298 304 302 298 291 284 280 274 272 267
254 250 245 256 251 255 261 261 252 255 261 265 270 283 290 283 278 280 283 286 292 297 297 301 303 303 306 301 303 302 301 299 296 293 287 278 270 264
253 250 244 249 245 254 265 256 254 259 271 272 276 282 283 285 288 286 285 289 290 293 295 302 306 305 305 301 307 310 308 306 311 310 292 288 282 273
241 238 245 246 254 265 262 250 258 269 271 277 284 282 284 288 287 285 286 291 299 304 307 306 306 309 309 313 313 311 306 308 315 311 303 294 292 283
239 242 250 252 262 255 240 254 263 268 274 279 276 279 283 285 284 276 282 295 305 301 307 305 309 313 310 312 310 312 310 316 313 310 308 304 297 294
232 240 254 242 243 240 248 258 267 270 276 275 290 306 291 275 282 295 298 303 300 302 303 305 305 311 313 314 313 315 314 314 312 313 309 306 304 300
234 244 248 242 238 252 259 260 261 259 261 274 289 314 299 303 314 309 304 305 300 302 302 299 306 310 314 313 312 312 311 312 312 309 310 307 307 307
236 243 237 242 247 258 258 247 235 222 250 271 270 273 281 292 302 309 310 309 309 311 307 309 310 318 315 314 319 314 316 316 316 315 314 311 310 311
229 236 231 239 246 232 218 226 231 236 267 275 273 273 281 284 295 308 308 310 314 317 319 314 319 317 308 321 322 327 325 319 320 320 317 314 313 312
218 228 220 219 213 227 244 258 252 252 265 263 268 276 272 279 300 307 300 309 314 320 318 320 324 317 321 325 332 337 330 325 325 322 320 312 313 308
198 203 204 212 231 248 254 242 239 244 252 264 270 275 277 291 294 291 302 307 312 318 324 330 329 328 326 327 331 340 333 328 327 327 324 320 310 309
189 204 217 232 236 243 236 252 271 262 254 258 259 270 283 279 274 297 308 307 316 321 333 335 337 334 323 326 328 333 339 332 336 333 329 322 317 316
191 198 214 217 225 232 247 250 247 251 258 270 284 259 255 272 293 304 302 309 317 327 338 335 338 332 327 321 326 334 339 342 343 342 339 332 328 323
204 212 214 206 213 237 256 266 271 273 276 263 245 252 284 299 299 301 298 315 323 327 335 329 333 333 327 323 331 338 337 339 347 346 354 342 333 323
211 209 212 229 266 291 296 288 280 277 273 257 264 270 283 294 296 282 299 307 319 317 324 327 336 337 328 325 336 341 342 348 354 358 2 357 346 322
Wind_Speed_850mb
33 33 38 33 32 30 29 25 22 22 23 18 13 16 17 27 36 28 27 30 31 29 31 36 38 35 31 32 30 28 29 30 32 34 36 36 36 38
29 33 35 43 41 34 35 31 26 25 25 18 15 18 20 17 23 29 33 36 32 31 37 44 39 39 37 34 34 31 30 29 26 27 31 36 39 40
32 31 32 35 43 48 42 36 36 36 29 31 29 28 26 28 32 38 43 41 38 37 43 48 47 42 38 37 37 35 38 41 36 32 32 33 33 34
35 33 34 36 38 39 44 42 42 41 39 37 39 39 41 39 37 38 38 43 39 45 50 50 42 41 48 49 47 45 46 44 46 47 46 42 40 40
41 38 36 38 41 38 38 42 44 45 41 38 37 37 39 37 40 44 43 45 46 49 52 53 59 51 48 50 48 51 52 51 51 54 54 52 49 48
53 44 44 43 44 45 42 43 39 38 35 33 37 39 39 37 40 42 45 47 53 57 63 61 51 50 50 52 60 59 59 57 53 52 49 50 53 54
60 56 48 48 45 44 44 43 42 41 39 38 40 43 47 45 43 43 46 51 54 51 49 44 55 52 52 54 59 63 64 62 62 63 66 63 67 69
62 63 52 50 48 47 47 42 46 45 46 44 40 44 49 48 40 37 40 46 47 50 51 52 39 41 36 31 36 38 35 37 38 42 47 53 59 60
57 64 59 53 52 48 50 55 51 49 46 43 47 51 52 44 37 39 41 45 47 47 49 50 43 45 41 39 39 42 48 50 50 51 49 51 52 49
53 58 62 51 50 46 50 56 53 52 49 50 51 54 51 39 40 44 45 47 51 47 48 59 55 55 49 46 52 59 54 43 42 45 46 53 63 65
41 44 52 55 46 44 50 50 44 46 49 48 49 52 41 38 39 43 44 47 48 45 50 54 47 51 50 54 58 48 42 40 44 45 45 50 57 62
41 43 46 49 48 52 50 47 48 47 41 42 45 39 40 43 45 47 40 41 40 39 45 46 44 45 60 59 51 51 52 49 54 57 56 60 60 63
39 42 45 51 59 45 43 43 45 47 42 41 34 35 41 43 36 28 22 27 38 48 46 42 51 54 51 59 60 53 49 59 64 69 69 64 62 67
33 33 38 37 31 32 39 42 44 38 34 29 28 30 30 22 22 28 33 36 41 43 42 44 47 44 49 55 53 62 64 71 72 74 67 68 75 81
35 33 30 31 30 28 32 33 30 24 20 19 17 15 19 20 23 31 38 43 40 40 34 29 37 43 49 51 59 69 78 84 69 60 69 79 89 92
34 34 33 34 30 31 27 21 19 19 17 18 21 20 22 27 33 38 44 37 33 31 27 26 34 43 45 49 65 72 62 56 66 74 83 91 94 99
38 35 31 32 29 21 17 16 20 22 17 16 20 24 26 30 33 34 28 27 32 35 38 34 43 41 37 57 65 61 61 60 72 79 87 103 109 98
35 30 28 24 23 19 15 16 18 21 19 21 26 29 26 29 31 27 24 28 32 34 40 45 47 36 53 56 53 68 62 69 77 81 89 91 119 93
24 22 23 22 18 20 19 18 20 23 26 31 31 30 30 31 32 26 25 31 31 36 40 42 32 48 57 58 67 64 69 70 78 89 95 90 94 104
22 20 19 22 22 23 21 19 22 28 29 27 28 30 36 29 18 21 29 29 32 35 39 27 43 45 46 50 63 76 57 64 72 90 97 87 90 92
25 23 19 23 24 19 19 19 20 23 26 28 27 18 15 16 21 27 26 26 29 31 33 33 45 44 41 45 57 72 65 55 64 77 80 86 86 94
27 30 23 21 17 15 18 22 25 27 27 20 19 18 19 23 27 30 23 26 25 26 34 34 41 39 38 40 54 67 64 62 73 69 65 67 67 71
27 25 24 19 16 19 24 24 21 17 17 19 18 19 20 28 32 25 23 22 26 28 33 36 38 40 36 40 53 61 56 60 78 86 85 64 51 45
Wind_Direction_850mb
223 227 223 226 230 230 238 240 244 247 250 261 238 233 245 267 262 268 286 296 306 315 324 323 316 316 301 302 293 291 291 286 279 278 280 279 275 273
219 223 230 230 229 230 237 242 249 257 266 270 259 267 283 258 248 271 288 293 293 297 306 311 303 296 306 296 291 288 288 284 281 283 284 281 280 276
223 223 227 228 236 237 242 246 253 256 258 265 269 276 269 268 272 280 282 284 293 296 300 302 301 293 295 295 287 286 294 280 276 282 288 289 284 285
230 228 236 234 235 236 247 251 251 257 263 270 274 271 275 282 285 281 274 276 286 289 295 303 304 295 295 297 285 276 281 282 267 271 277 274 278 283
233 234 238 248 251 247 251 251 248 254 263 268 277 284 284 283 283 288 284 284 282 284 291 297 299 294 289 287 282 279 279 276 274 270 268 265 263 269
238 242 243 246 253 256 250 249 247 248 254 261 279 289 289 294 288 287 286 289 288 286 292 296 298 293 287 282 284 282 281 278 271 266 265 266 263 263
242 241 247 247 251 255 256 259 257 258 262 266 277 291 293 294 295 291 289 290 292 298 300 298 301 300 291 284 282 281 282 282 276 269 267 267 266 268
247 241 243 248 247 251 255 258 257 264 268 276 285 292 297 297 294 291 290 294 301 306 312 310 308 315 309 301 299 288 284 283 278 274 267 268 267 266
256 247 243 250 250 251 257 257 253 258 265 274 274 288 296 294 285 283 289 292 293 302 302 304 308 308 305 293 298 304 302 298 291 284 280 274 272 267
254 250 245 256 251 255 261 261 252 255 261 265 270 283 290 283 278 280 283 286 292 297 297 301 303 303 306 301 303 302 301 299 296 293 287 278 270 264
253 250 244 249 245 254 265 256 254 259 271 272 276 282 283 285 288 286 285 289 290 293 295 302 306 305 305 301 307 310 308 306 311 310 292 288 282 273
241 238 245 246 254 265 262 250 258 269 271 277 284 282 284 288 287 285 286 291 299 304 307 306 306 309 309 313 313 311 306 308 315 311 303 294 292 283
239 242 250 252 262 255 240 254 263 268 274 279 276 279 283 285 284 276 282 295 305 301 307 305 309 313 310 312 310 312 310 316 313 310 308 304 297 294
232 240 254 242 243 240 248 258 267 270 276 275 290 306 291 275 282 295 298 303 300 302 303 305 305 311 313 314 313 315 314 314 312 313 309 306 304 300
234 244 248 242 238 252 259 260 261 259 261 274 289 314 299 303 314 309 304 305 300 302 302 299 306 310 314 313 312 312 311 312 312 309 310 307 307 307
236 243 237 242 247 258 258 247 235 222 250 271 270 273 281 292 302 309 310 309 309 311 307 309 310 318 315 314 319 314 316 316 316 315 314 311 310 311
229 236 231 239 246 232 218 226 231 236 267 275 273 273 281 284 295 308 308 310 314 317 319 314 319 317 308 321 322 327 325 319 320 320 317 314 313 312
218 228 220 219 213 227 244 258 252 252 265 263 268 276 272 279 300 307 300 309 314 320 318 320 324 317 321 325 332 337 330 325 325 322 320 312 313 308
198 203 204 212 231 248 254 242 239 244 252 264 270 275 277 291 294 291 302 307 312 318 324 330 329 328 326 327 331 340 333 328 327 327 324 320 310 309
189 204 217 232 236 243 236 252 271 262 254 258 259 270 283 279 274 297 308 307 316 321 333 335 337 334 323 326 328 333 339 332 336 333 329 322 317 316
191 198 214 217 225 232 247 250 247 251 258 270 284 259 255 272 293 304 302 309 317 327 338 335 338 332 327 321 326 334 339 342 343 342 339 332 328 323
204 212 214 206 213 237 256 266 271 273 276 263 245 252 284 299 299 301 298 315 323 327 335 329 333 333 327 323 331 338 337 339 347 346 354 342 333 323
211 209 212 229 266 291 296 288 280 277 273 257 264 270 283 294 296 282 299 307 319 317 324 327 336 337 328 325 336 341 342 348 354 358 2 357 346 322